GFSGBSN_925_spd_000.txt.gz
Wind_Speed
11 10 10 11 12 13 13 11 10 8 8 9 9 10 10 11 10 10 10 10 11 8 4 3 1 4 3 5 5 6 6 8 8 4 6 6 6 4 5 9 13 13 10 8 4 5 3
9 9 10 11 12 12 10 7 5 4 5 6 7 7 7 8 9 11 12 13 9 7 5 2 3 6 4 8 3 6 4 5 7 5 8 4 3 5 7 5 1 5 7 7 3 4 4
9 7 9 10 12 11 7 4 2 1 1 2 3 5 6 8 11 12 13 11 10 8 4 3 6 7 5 5 2 4 1 2 4 5 5 5 3 4 5 9 3 7 10 6 6 4 3
7 7 8 10 12 10 6 4 3 3 3 5 6 7 9 11 12 13 12 11 10 7 4 4 7 4 5 2 2 7 3 1 3 3 6 5 8 7 2 5 5 5 4 5 7 1 3
6 6 8 10 13 11 6 5 5 5 6 7 7 8 9 10 10 11 12 11 9 5 3 5 4 2 7 2 2 6 4 2 4 6 5 5 3 4 5 6 6 2 2 1 7 3 4
4 5 7 9 12 11 6 5 5 6 6 7 8 8 8 9 10 11 10 8 6 4 3 6 4 6 2 5 4 6 2 2 2 2 4 1 2 4 4 3 1 1 3 3 1 6 6
2 4 6 9 12 12 6 4 5 5 7 8 8 8 7 8 9 8 6 3 4 5 9 6 6 6 3 2 5 8 4 1 2 3 3 5 4 7 7 6 3 1 2 2 3 4 6
1 4 6 8 11 13 7 3 4 4 8 8 7 6 3 5 8 8 4 1 4 5 10 7 4 7 5 2 7 14 10 1 1 5 3 4 8 4 4 4 2 2 2 1 2 1 5
0 4 6 8 11 13 9 4 2 3 7 8 7 7 8 9 8 4 4 5 4 2 6 7 3 4 3 10 7 11 9 3 8 8 4 5 6 2 2 6 5 1 2 4 4 4 3
1 4 5 8 10 12 10 5 2 3 6 8 7 6 4 6 5 5 4 4 3 1 3 3 2 5 2 1 5 10 8 3 3 8 8 8 3 2 2 5 7 1 3 8 7 6 4
2 3 4 6 9 11 12 6 1 3 7 9 8 5 5 5 8 3 4 4 4 0 3 1 5 3 6 4 1 12 6 7 6 5 4 4 5 5 6 4 6 5 8 5 4 6 4
3 2 3 6 9 11 13 9 1 4 7 9 9 8 8 6 4 7 5 4 1 3 3 4 2 4 7 11 6 4 6 8 1 8 10 6 2 4 5 3 2 6 3 1 1 2 4
3 2 2 5 8 11 14 11 2 5 8 9 10 9 4 4 4 5 4 3 4 3 1 6 6 4 7 6 7 11 14 12 5 2 3 3 5 2 6 3 4 8 2 2 2 4 1
3 2 2 5 8 11 14 13 4 7 9 11 12 10 6 8 5 4 2 3 4 2 1 3 6 7 4 3 6 6 5 10 13 6 3 2 4 8 9 5 6 7 6 3 3 2 4
3 2 3 5 8 11 14 15 9 7 9 13 14 10 5 4 4 3 4 2 3 5 6 7 8 4 4 4 2 3 8 5 9 10 4 2 3 3 6 5 5 3 4 2 2 1 3
4 3 3 5 7 11 13 15 12 6 10 13 6 5 3 2 3 2 1 2 2 1 2 4 4 1 4 4 2 2 3 4 2 7 4 2 2 2 1 3 8 4 3 2 2 3 4
5 3 2 4 6 10 12 15 13 6 10 10 4 4 2 4 3 2 2 3 4 3 1 2 4 4 5 4 4 3 3 3 3 3 4 4 3 2 3 2 2 3 2 2 1 2 3
6 3 1 3 5 8 11 14 15 6 9 9 3 3 4 6 3 1 3 4 2 4 3 4 4 6 4 3 4 3 3 2 2 2 2 4 1 2 1 2 3 2 1 1 2 2 2
7 4 2 1 4 7 10 12 15 8 8 5 2 3 5 0 3 3 4 4 4 3 3 3 3 2 3 4 4 4 3 3 3 1 3 1 0 2 3 4 3 4 2 2 1 1 8
8 5 3 1 3 6 8 11 13 10 4 5 2 3 2 2 1 9 10 5 5 4 4 6 5 6 7 5 3 6 5 3 1 1 4 1 2 4 4 6 4 6 6 6 8 5 8
8 5 3 1 2 5 7 9 10 11 5 4 2 2 2 4 3 9 6 6 11 5 3 2 4 3 5 4 4 4 3 4 2 3 1 2 3 3 7 10 13 11 13 12 14 14 10
10 6 3 1 2 4 7 8 9 9 4 5 2 3 2 3 5 10 1 7 9 5 2 4 7 7 5 5 2 5 3 3 1 3 1 1 1 3 4 8 10 12 14 14 13 12 13
10 8 4 3 1 3 6 8 9 9 4 3 2 2 1 1 3 4 3 7 9 8 5 3 13 10 8 8 5 6 6 5 3 1 2 1 1 1 4 9 13 6 3 4 4 4 8
10 8 5 3 1 3 5 7 9 9 8 5 3 3 2 3 1 3 7 5 12 3 8 7 5 6 4 10 10 7 9 7 4 4 2 4 3 1 3 5 3 3 5 9 13 13 8
11 9 6 4 2 1 3 6 7 8 7 5 5 2 3 3 2 5 9 9 10 8 8 7 4 4 7 2 2 3 2 2 4 6 4 2 3 2 2 4 14 12 4 2 2 11 3
12 10 8 5 3 2 2 4 5 6 5 7 8 5 3 6 4 5 6 9 6 5 4 3 4 3 2 2 2 2 1 1 3 4 4 4 4 2 3 4 4 3 3 4 4 8 3
12 11 9 6 4 2 1 2 3 4 4 4 5 4 2 3 3 4 3 6 5 4 5 4 5 2 2 2 2 2 2 2 2 2 4 2 2 4 6 6 7 6 5 1 3 3 11
13 12 10 8 6 4 2 1 2 2 2 2 4 3 2 3 3 2 4 5 4 4 5 6 5 2 2 3 3 3 2 3 3 2 3 3 2 4 3 4 6 2 2 2 5 5 1
15 14 12 10 7 6 4 2 1 2 1 3 2 4 7 5 3 3 2 2 2 4 5 5 1 5 4 4 2 3 3 1 1 4 4 5 6 4 7 6 4 6 8 4 1 4 6

GFSGBSN_925_spd_003.txt.gz
Wind_Speed
9 11 13 13 16 18 19 18 18 16 13 12 13 13 13 13 13 12 11 10 12 11 8 7 3 4 1 7 5 3 7 8 2 5 12 7 4 3 4 7 8 10 9 9 9 6 2
8 10 11 13 16 17 17 15 13 10 9 10 10 11 11 11 11 10 10 12 13 10 8 4 3 7 6 4 1 3 6 5 6 3 3 4 2 2 5 7 4 7 9 9 7 6 4
7 9 10 12 15 15 14 11 7 7 6 7 7 8 9 9 10 11 13 14 12 10 5 3 6 5 10 7 2 3 5 7 6 8 2 2 1 6 8 6 4 8 9 9 7 8 4
5 8 9 11 13 13 10 6 4 3 2 3 4 6 8 10 12 14 14 13 10 5 2 3 8 4 2 2 3 3 5 4 4 3 6 5 2 3 4 7 7 11 10 11 8 8 5
5 6 8 10 12 11 7 4 2 2 2 3 4 6 8 10 11 12 12 10 6 3 3 5 3 8 4 2 4 5 4 5 1 2 4 2 4 4 6 11 10 9 11 4 8 3 3
5 5 7 9 10 10 5 2 1 1 2 3 5 6 7 9 9 10 9 6 4 3 3 1 9 7 3 2 2 2 1 3 5 5 6 7 7 10 9 9 7 7 5 9 4 7 8
4 4 5 7 9 9 4 1 2 3 3 5 6 7 8 9 10 9 7 4 5 5 7 6 8 7 7 5 6 4 1 5 9 8 9 5 10 7 10 7 7 5 5 5 6 4 6
3 3 5 5 8 8 5 1 2 3 5 6 5 5 5 6 7 7 4 5 8 7 10 8 9 10 3 2 8 5 5 8 10 7 5 9 8 5 3 4 4 4 5 1 2 2 6
4 3 3 4 6 8 5 1 2 4 6 7 6 7 8 10 9 4 4 3 2 3 6 6 4 6 4 4 5 7 7 3 3 5 3 9 8 1 3 4 8 4 8 7 10 3 9
4 2 2 3 5 7 6 3 3 5 7 7 7 5 7 9 5 7 4 1 2 4 3 4 3 4 1 2 5 8 5 4 1 6 8 7 4 3 3 4 9 6 5 8 8 7 8
5 3 1 3 5 7 7 3 4 6 8 8 7 5 6 6 7 6 4 1 1 3 3 2 5 2 3 3 1 5 6 2 4 6 5 5 3 2 3 5 6 6 8 7 8 9 8
6 4 1 2 4 7 8 3 6 8 10 10 9 6 8 4 1 5 3 2 2 4 3 5 3 6 10 9 6 4 5 6 5 5 9 8 2 5 6 4 3 8 7 6 6 4 5
7 4 1 2 4 7 8 3 7 9 11 12 11 7 2 1 4 4 3 4 4 4 4 7 8 4 8 8 7 8 7 7 2 4 3 7 5 4 7 7 5 9 6 3 3 4 2
7 4 1 2 4 7 9 4 7 9 12 12 12 8 4 4 3 3 4 6 6 3 7 6 9 9 5 6 4 4 4 9 11 6 2 3 7 7 7 6 7 6 7 3 4 3 5
8 4 1 2 4 7 9 6 6 10 12 14 13 7 5 2 3 2 7 6 4 7 8 12 13 9 7 5 2 4 10 8 8 10 5 3 4 5 5 6 7 4 4 3 2 1 3
9 6 2 2 4 6 8 8 5 10 15 17 11 10 6 2 2 5 5 2 3 2 4 13 7 4 6 7 5 3 2 4 4 8 5 3 2 2 4 4 5 9 3 3 2 3 4
10 7 3 2 3 5 8 10 4 11 17 13 11 6 3 5 4 6 5 3 7 5 1 3 3 4 6 5 3 3 3 5 3 4 5 7 3 5 3 3 8 1 2 3 4 4 4
10 7 4 2 3 5 8 11 5 12 15 10 5 5 2 6 7 4 5 6 2 8 3 3 3 4 5 4 3 3 4 5 3 4 4 6 2 2 5 3 3 4 4 3 2 2 2
11 8 4 1 2 4 6 10 8 10 14 7 3 5 2 3 4 3 5 6 3 7 3 4 3 1 3 5 3 6 5 5 4 4 7 6 1 3 5 6 4 4 2 1 2 1 8
11 8 5 2 2 4 5 8 9 4 9 3 3 3 4 5 3 9 9 9 7 3 4 4 6 6 8 5 3 7 7 3 2 5 4 3 1 3 5 8 5 6 7 7 8 6 9
12 8 6 2 1 3 5 7 8 5 6 3 2 2 1 7 6 8 9 10 11 6 3 6 4 4 7 4 6 4 6 6 3 3 1 3 2 5 9 11 9 10 12 12 13 13 11
13 10 6 3 1 2 4 6 7 6 5 2 2 3 2 2 5 9 5 10 13 6 8 7 7 7 5 6 2 6 4 2 2 4 1 2 1 4 4 6 7 12 14 16 12 8 13
13 10 6 4 2 1 3 5 6 6 2 2 2 1 3 2 8 8 7 10 10 10 2 4 11 8 10 9 10 9 8 5 4 1 2 2 1 3 4 10 11 6 3 3 5 8 7
13 10 8 6 3 0 2 4 6 6 4 2 2 2 3 4 7 8 8 9 12 6 9 10 7 8 6 9 10 9 10 6 4 3 2 4 1 2 3 6 2 5 7 13 9 9 10
13 10 8 6 4 2 1 3 4 5 4 3 3 2 3 3 5 6 10 13 10 11 13 11 6 6 9 1 2 2 2 3 2 5 4 0 3 2 2 5 14 12 4 5 7 12 12
14 11 8 6 4 3 1 2 3 5 4 4 3 3 2 6 5 10 10 13 11 8 7 5 5 4 2 2 2 2 2 1 5 6 5 4 2 3 3 3 4 3 2 3 6 9 7
14 12 9 6 4 3 1 1 2 3 4 4 2 3 1 3 3 7 6 10 5 9 6 7 7 3 2 2 1 2 3 2 3 3 4 2 2 5 6 5 8 8 3 5 4 3 6
12 12 10 7 4 3 2 1 1 2 2 4 1 3 2 3 5 2 3 7 4 7 5 9 5 2 2 2 3 3 1 3 3 2 4 6 6 4 3 4 6 3 4 2 8 11 4
12 11 10 8 5 3 2 1 1 1 1 2 0 4 8 2 4 3 3 2 3 3 4 9 0 6 6 3 3 2 2 0 1 3 4 4 6 4 8 6 7 7 9 11 6 6 3

GFSGBSN_925_spd_006.txt.gz
Wind_Speed
9 8 9 10 12 16 18 19 19 18 17 15 14 15 15 15 14 14 13 11 11 11 11 10 9 10 2 6 1 5 8 4 5 6 12 12 14 13 8 7 9 7 6 9 8 6 2
9 7 7 10 12 16 18 18 16 15 13 13 13 13 13 13 13 13 12 12 12 13 11 8 8 6 3 10 2 1 5 10 5 11 10 6 4 6 4 7 6 7 9 9 8 7 4
9 6 7 9 12 15 16 14 13 11 10 10 10 11 11 12 11 12 13 13 13 11 8 6 7 0 7 6 2 3 3 6 6 11 7 5 9 6 4 5 2 6 8 7 7 7 5
9 6 7 9 11 14 14 12 10 8 7 7 6 8 9 11 12 15 14 12 10 7 6 7 6 2 6 1 7 5 5 6 4 4 4 1 6 8 8 7 4 9 9 9 11 8 6
8 6 7 8 10 13 11 9 7 6 6 4 3 4 7 10 11 11 10 9 6 5 5 5 3 5 5 3 6 3 3 10 3 2 1 1 6 5 2 9 9 9 9 8 9 6 2
8 6 6 6 10 11 10 7 5 5 4 2 2 4 6 7 8 9 8 7 5 4 3 3 13 8 4 2 2 2 2 5 4 3 5 6 6 8 11 7 5 11 10 6 4 9 6
7 6 5 5 8 10 9 5 4 4 3 1 3 4 5 7 8 9 9 3 5 4 9 7 10 3 6 6 5 2 3 6 6 6 10 6 8 7 12 9 7 9 7 8 13 7 3
7 6 3 4 6 8 9 4 3 3 2 3 3 3 5 7 7 7 8 6 6 7 6 4 7 6 2 4 6 6 3 6 4 11 0 5 7 8 6 8 6 6 6 6 5 6 5
7 5 3 3 5 7 8 4 4 4 4 3 3 3 6 8 7 6 11 5 6 9 5 4 5 5 3 2 6 3 8 5 8 7 5 13 10 5 5 6 9 4 7 9 8 9 8
7 5 3 2 4 7 8 5 5 4 4 4 4 5 8 9 4 7 4 1 5 7 4 7 5 4 3 0 4 3 5 5 3 4 8 8 4 4 2 6 9 3 6 5 8 7 7
7 6 3 2 4 7 8 6 5 6 6 6 5 3 5 6 11 7 3 3 5 3 4 3 5 1 4 2 5 6 1 6 2 3 4 5 5 5 4 6 6 6 5 6 8 9 10
8 6 4 1 3 7 9 7 6 7 8 8 5 3 6 1 2 4 2 3 3 4 3 5 5 7 6 3 3 4 3 5 3 4 11 7 3 7 6 4 2 7 10 9 8 9 3
8 6 4 1 2 6 8 7 6 9 10 9 7 5 2 4 2 1 2 3 4 3 6 7 9 7 9 6 7 5 5 5 3 4 5 8 7 5 7 10 5 9 9 3 2 3 2
9 7 4 2 2 5 8 6 6 10 11 11 8 5 3 3 1 2 3 6 5 4 5 8 9 11 8 6 5 1 10 9 9 12 6 7 6 5 7 7 7 5 6 2 4 5 4
10 7 4 2 1 5 7 5 6 10 13 13 11 5 5 1 1 2 5 5 2 4 8 8 10 7 5 4 2 6 12 7 8 11 7 4 7 6 7 5 8 7 6 4 1 3 1
11 8 5 3 1 3 6 3 7 11 15 17 9 8 7 4 1 3 4 7 1 6 5 11 9 3 7 7 7 5 3 4 4 9 6 4 4 4 3 3 4 6 2 2 3 2 3
12 9 6 3 1 3 6 3 8 12 17 19 4 6 5 7 3 5 6 4 2 2 8 6 2 4 5 4 3 3 5 6 6 6 6 6 3 4 5 8 8 1 2 2 4 1 2
13 10 6 3 1 3 6 5 8 14 18 11 7 5 7 10 6 7 8 3 1 7 2 3 5 3 3 4 2 4 8 8 4 5 4 4 2 2 8 5 3 3 5 3 0 2 0
14 10 7 4 1 3 5 7 6 15 18 7 6 4 4 6 5 5 4 6 4 8 7 4 2 1 2 5 3 6 8 5 5 7 4 4 1 2 8 5 4 2 4 1 6 2 4
15 11 8 4 1 2 5 7 4 12 17 4 4 3 4 5 7 11 8 7 5 3 4 1 5 4 5 5 4 6 9 4 5 7 4 3 2 2 2 5 6 7 8 8 8 4 5
15 11 8 5 1 2 4 6 5 5 11 5 4 5 7 6 7 6 11 10 11 6 5 6 5 5 6 2 6 5 11 8 4 2 1 3 1 5 7 8 7 9 11 11 12 11 8
16 12 9 5 2 2 4 5 6 2 8 4 3 2 3 3 10 8 5 7 11 8 9 8 5 7 7 6 3 6 6 4 3 3 2 4 2 3 2 3 9 12 14 14 15 14 9
16 12 9 6 3 1 3 5 6 4 4 6 2 2 2 2 4 6 6 9 10 10 2 6 7 8 11 12 12 11 10 9 6 4 4 2 1 2 2 9 9 2 3 3 5 7 9
16 12 9 6 3 1 3 5 7 6 1 3 3 2 3 1 5 9 10 8 10 9 6 8 7 9 9 13 12 11 12 9 7 6 4 5 2 2 2 5 2 4 13 11 9 7 7
16 12 9 6 4 1 3 5 7 7 5 5 2 3 3 2 6 7 9 8 11 6 10 13 10 11 10 4 3 2 2 4 3 5 4 4 3 2 0 3 9 10 5 5 5 10 11
16 13 9 7 4 2 3 5 7 7 6 5 5 4 3 5 2 7 9 12 8 8 7 5 5 5 1 2 2 3 3 2 6 6 7 4 5 1 2 2 3 1 7 6 8 8 7
16 13 10 7 5 3 2 4 6 6 6 6 3 3 2 2 3 4 6 8 8 7 5 7 6 2 1 2 2 2 3 2 5 5 4 3 2 4 4 4 6 9 4 3 3 2 7
15 13 10 7 5 3 2 3 5 5 5 6 2 6 3 3 3 5 1 8 5 7 5 8 4 1 2 3 3 3 2 4 1 4 6 7 6 4 4 4 6 2 1 2 6 8 3
13 11 9 6 5 3 2 2 4 5 5 3 1 6 8 2 4 5 5 6 5 8 5 8 3 7 5 3 2 1 2 2 2 3 7 4 6 4 9 5 8 1 5 7 3 5 4

GFSGBSN_925_spd_009.txt.gz
Wind_Speed
19 16 14 13 13 15 16 17 17 17 16 15 13 12 11 12 13 13 13 13 13 13 12 11 11 9 0 2 8 7 6 7 11 10 14 8 8 5 7 5 3 8 7 7 6 7 7
17 15 14 12 13 14 16 17 16 14 13 12 10 10 10 12 12 12 12 12 12 11 10 9 10 4 1 4 5 2 6 9 13 15 10 17 7 11 6 6 6 6 9 8 5 4 3
15 14 14 12 14 14 16 16 13 11 10 9 7 9 10 11 11 11 12 12 10 9 7 9 6 1 3 11 13 6 7 9 10 11 6 8 10 8 4 5 4 10 6 7 5 8 5
15 13 13 11 14 14 15 13 9 8 7 6 6 7 8 9 10 12 9 7 6 6 8 8 1 3 5 7 8 3 8 11 5 10 13 13 12 6 3 3 4 3 5 5 6 9 6
15 13 12 11 13 13 13 10 7 6 6 5 3 3 4 8 7 5 6 6 6 7 6 3 1 2 6 5 3 2 3 10 6 4 5 7 6 1 4 4 3 2 5 6 6 10 5
14 12 10 10 11 11 11 7 5 4 5 4 1 1 4 5 7 8 7 6 3 3 2 2 6 3 8 4 4 1 3 7 4 3 3 2 1 2 5 4 3 5 4 5 8 3 4
13 11 10 9 9 9 9 5 3 3 4 2 2 2 5 6 7 6 4 1 2 1 5 8 9 5 4 5 6 8 4 6 5 3 4 6 6 3 3 3 4 5 5 10 5 5 2
14 11 9 8 7 7 7 4 3 2 2 1 2 4 6 6 6 7 6 3 2 3 4 15 4 3 2 2 5 4 1 2 3 6 6 5 5 3 5 5 6 5 7 6 4 3 3
14 11 9 7 6 5 6 4 2 1 2 1 1 3 6 6 5 7 10 11 12 11 3 3 2 4 3 5 4 4 5 5 7 5 7 8 1 4 3 9 9 10 6 5 4 7 5
15 11 9 5 6 4 5 3 2 2 3 4 3 2 7 8 4 7 5 4 8 8 4 5 4 3 2 5 3 2 3 3 3 5 9 6 1 4 8 8 7 5 6 5 6 4 2
15 11 9 5 5 4 5 3 3 5 6 5 5 4 6 8 9 3 4 3 6 3 4 5 3 2 3 1 7 2 2 5 4 4 7 3 8 9 9 4 5 2 0 3 3 4 3
15 12 9 6 4 4 5 4 3 7 7 6 5 3 6 3 6 5 7 3 3 5 1 2 4 4 4 4 3 3 1 2 2 10 8 4 5 4 5 4 2 5 4 5 4 2 2
16 12 9 6 3 3 5 4 5 9 9 8 5 6 4 3 1 8 7 3 5 4 5 4 4 6 6 3 5 5 4 6 4 3 3 5 5 3 4 4 2 6 6 3 3 4 3
16 13 9 6 3 3 4 3 5 10 10 10 8 5 3 2 1 5 5 5 1 6 3 6 5 7 6 4 3 3 7 5 9 6 2 5 3 6 8 5 2 5 4 4 2 1 4
17 13 9 6 2 3 4 3 5 11 13 12 9 5 2 0 2 4 5 2 4 3 7 6 5 5 4 1 1 6 7 4 6 7 5 4 3 3 5 3 3 5 5 2 5 1 3
17 13 9 5 2 2 4 3 6 12 14 15 8 5 5 3 1 3 4 4 2 4 4 6 7 6 7 7 5 4 4 5 2 6 4 5 4 3 3 1 5 6 2 5 4 2 2
17 13 9 5 2 1 5 3 7 13 17 18 2 2 6 8 3 4 2 5 4 7 8 2 3 2 3 6 5 4 4 5 7 4 7 5 4 3 2 5 4 4 3 4 2 4 3
17 13 9 6 2 1 4 3 8 14 17 16 2 1 8 9 3 3 3 3 1 3 3 4 5 6 4 5 6 6 4 5 8 6 3 3 4 3 3 2 2 1 4 5 4 3 1
17 13 9 6 3 2 4 4 7 16 21 7 3 3 4 2 3 3 6 2 3 6 3 1 5 6 5 4 5 9 5 5 8 5 1 3 2 3 4 4 5 2 4 5 6 3 3
16 13 9 6 3 2 4 5 3 15 22 1 1 2 3 1 2 5 4 3 3 6 3 5 5 3 5 4 5 4 4 2 5 3 2 3 3 5 5 2 1 2 4 2 6 3 4
17 13 10 6 3 2 3 4 3 9 12 5 1 4 7 4 4 5 5 8 6 2 1 3 1 4 5 3 5 5 5 4 2 1 2 3 3 4 4 5 4 3 4 5 5 6 6
17 14 11 7 4 3 4 4 5 4 10 6 2 3 2 4 5 3 4 6 9 8 6 4 4 5 8 5 1 5 8 5 4 5 3 4 1 2 2 6 8 4 7 7 7 7 6
17 14 11 8 5 3 4 5 6 5 10 4 4 2 4 4 3 3 3 2 1 7 3 4 6 12 14 7 9 7 8 6 6 4 2 3 4 3 2 4 5 4 4 3 1 1 1
17 14 12 8 5 3 4 6 7 5 4 2 4 3 4 3 2 4 6 4 7 6 5 7 9 8 4 6 6 9 11 11 9 7 5 4 3 3 2 3 2 4 4 1 5 5 7
18 14 12 9 6 4 5 6 7 6 5 4 3 3 3 1 2 3 4 4 9 14 9 12 8 7 8 6 5 4 5 6 5 6 4 5 4 3 3 1 6 6 2 3 4 4 7
18 15 12 9 7 5 5 7 8 8 7 7 7 4 4 5 4 5 3 9 6 4 5 4 6 6 6 3 4 4 4 6 4 3 8 7 6 4 2 4 6 6 4 6 3 3 3
18 15 12 10 7 6 5 7 8 8 7 6 6 5 3 3 4 5 2 5 6 5 5 4 1 4 6 3 2 3 3 2 5 7 3 3 3 5 3 2 7 8 4 5 4 6 3
18 15 12 10 8 6 6 6 7 8 7 7 7 8 3 3 3 7 7 4 4 5 5 5 4 4 3 3 3 3 2 4 2 6 6 7 6 4 3 2 7 6 4 7 5 4 6
17 14 11 9 7 6 5 6 7 7 6 6 5 8 8 5 3 5 7 9 7 2 5 4 7 4 5 4 1 3 1 0 2 3 4 2 7 6 9 7 7 6 7 5 6 5 4

GFSGBSN_925_spd_012.txt.gz
Wind_Speed
18 17 18 16 15 14 16 16 17 19 18 17 16 16 14 13 13 13 12 12 11 9 7 8 4 6 2 1 8 6 11 10 13 11 10 6 5 6 6 5 5 7 4 5 7 8 4
18 17 17 18 15 14 15 16 18 18 15 14 14 13 13 11 12 12 12 11 9 8 6 4 4 3 1 3 3 14 12 9 12 13 9 11 8 8 6 9 6 5 7 6 6 4 4
19 17 15 16 16 14 15 16 16 14 12 12 11 11 12 11 12 12 11 9 7 5 4 3 3 1 2 12 9 13 4 7 5 13 4 2 7 2 2 5 7 9 6 4 1 2 2
19 17 14 16 15 15 14 15 14 10 9 8 8 9 9 10 10 9 8 7 5 3 3 3 2 4 6 12 16 14 7 7 10 1 7 8 7 1 5 1 6 5 6 3 3 4 1
19 17 15 14 15 15 13 13 11 8 7 6 6 7 7 7 6 6 7 6 3 2 2 3 3 2 8 13 4 4 4 6 11 5 7 10 6 4 7 4 5 6 3 3 2 7 3
20 18 15 14 13 13 12 11 8 6 5 4 4 4 4 8 7 8 7 5 2 2 4 3 2 2 6 4 4 1 3 7 2 6 6 7 6 4 5 5 2 4 4 3 7 4 2
21 19 15 14 12 12 11 8 6 4 3 2 2 4 5 9 7 7 7 4 1 2 4 6 4 4 4 1 3 2 2 4 2 5 3 6 6 4 2 3 3 5 3 7 3 2 4
23 19 15 14 11 10 9 7 5 4 3 2 3 5 8 8 7 7 5 1 3 1 5 10 9 8 14 1 2 1 1 2 1 1 2 6 2 2 3 6 7 4 8 5 5 7 5
24 19 16 14 10 11 8 6 5 5 4 4 5 6 8 9 7 5 5 8 8 9 2 1 5 4 1 5 1 2 2 2 2 3 3 6 3 3 6 7 8 5 6 3 2 3 6
25 20 16 14 10 11 8 5 6 6 5 5 5 5 8 8 5 1 4 7 6 6 4 3 2 1 3 3 3 2 2 2 6 9 7 6 6 7 6 4 1 3 3 4 3 3 5
26 21 17 14 11 10 7 6 7 7 7 6 5 5 7 11 3 4 5 8 7 2 4 3 1 5 1 2 4 3 2 4 2 1 7 3 5 6 6 0 1 4 1 1 1 3 3
26 21 18 14 12 10 7 6 8 9 9 8 6 6 6 5 5 2 9 8 1 6 2 4 4 4 2 1 2 2 3 6 2 7 7 5 2 3 2 3 1 2 1 6 4 3 3
27 22 18 15 12 10 7 7 9 11 11 10 7 7 10 3 1 6 7 3 5 4 2 4 4 5 4 2 2 4 5 6 4 5 4 5 4 5 4 4 6 8 5 3 4 4 4
27 22 19 15 12 10 7 6 10 13 13 12 10 8 3 3 3 5 3 5 2 4 4 3 5 4 4 3 6 3 3 4 5 4 3 4 4 4 6 2 1 4 4 4 4 2 3
27 22 19 15 12 10 6 6 10 15 16 14 11 6 2 2 1 2 5 3 5 4 6 7 5 6 3 2 6 6 4 2 1 2 5 4 1 2 1 2 2 3 4 4 6 3 3
27 23 18 15 12 9 6 6 12 16 17 16 10 5 2 4 1 5 4 5 3 3 2 5 6 5 4 5 4 4 2 2 1 5 2 3 4 1 2 5 7 6 2 4 4 2 2
27 23 18 15 11 8 4 7 14 18 20 18 6 3 4 5 2 5 3 5 2 3 5 3 3 4 6 6 6 3 3 3 5 4 5 2 4 4 4 3 0 5 3 5 4 3 4
27 23 18 15 11 7 4 7 15 19 20 17 5 2 3 7 3 0 2 4 3 3 5 5 3 3 5 4 5 3 3 3 6 2 3 2 5 3 1 3 1 2 3 4 4 2 2
26 22 18 14 11 7 5 7 16 20 23 9 5 2 3 1 3 2 4 4 2 2 1 2 2 4 3 4 6 3 4 2 7 4 2 3 2 3 6 6 5 4 2 5 6 3 3
25 21 18 14 11 8 6 6 15 22 21 8 3 2 3 3 1 6 2 2 3 4 3 5 4 5 5 4 5 4 3 3 4 3 2 2 3 5 6 4 3 2 2 3 5 3 3
24 21 17 14 11 9 7 6 11 20 24 3 2 4 6 4 3 3 4 3 3 2 2 3 4 3 5 3 3 4 3 2 4 2 2 3 3 1 2 4 1 1 1 2 5 4 5
23 20 16 13 11 9 8 7 11 18 20 4 3 3 2 3 6 5 5 6 8 3 4 0 3 4 6 4 5 7 7 3 4 1 3 4 0 2 1 5 6 3 5 6 5 4 5
22 20 16 13 11 9 8 9 11 21 20 4 4 1 5 3 4 4 3 6 8 8 1 3 12 8 10 3 5 5 5 6 5 5 2 3 4 3 3 4 5 5 5 3 2 2 3
22 19 16 13 11 9 9 10 11 18 16 4 1 3 4 1 4 6 3 3 6 3 7 3 5 6 4 6 3 6 10 11 10 8 4 4 4 3 2 3 1 5 4 5 7 3 8
22 19 15 13 11 9 10 10 10 11 12 8 3 3 3 1 1 2 3 10 9 7 6 5 5 3 7 6 5 5 5 6 4 6 6 4 5 3 3 3 5 4 5 5 6 4 6
22 19 15 13 10 9 10 10 11 11 10 10 9 7 5 5 4 2 5 8 7 4 5 4 6 5 7 3 4 4 4 4 2 2 5 6 6 4 3 4 6 5 3 6 5 4 8
21 18 15 12 10 9 9 9 10 10 9 9 7 6 5 4 3 2 4 6 6 4 4 2 1 4 4 2 3 3 4 5 5 7 4 3 3 5 3 2 8 7 4 3 5 7 7
21 17 15 13 10 9 9 9 10 10 9 9 10 7 3 3 3 4 4 5 4 3 5 5 4 4 3 4 3 4 3 5 3 4 6 7 6 4 3 2 8 7 5 7 6 4 7
20 17 15 13 10 9 9 9 10 9 9 8 6 8 8 4 3 4 9 8 1 6 6 1 6 4 5 4 2 3 1 1 2 3 3 2 7 6 10 7 5 7 6 4 7 6 7

GFSGBSN_925_spd_015.txt.gz
Wind_Speed
22 22 22 20 19 19 17 19 17 19 21 23 22 19 17 15 14 12 11 11 10 10 9 8 6 6 0 2 8 3 8 4 12 19 17 7 6 6 4 4 1 3 3 1 5 8 6
23 23 22 21 19 19 17 19 18 19 20 22 20 18 15 14 13 11 11 11 10 9 7 5 5 2 2 3 5 3 17 9 13 19 10 12 8 8 3 7 7 7 1 5 3 7 5
25 24 22 21 19 18 18 18 18 20 17 18 17 15 12 11 11 11 10 10 9 8 5 4 3 2 2 12 4 18 13 11 16 20 6 19 16 2 5 3 2 7 4 4 2 1 2
26 24 22 21 19 17 18 17 18 17 15 15 14 12 10 9 10 9 9 9 8 5 2 3 3 2 6 7 14 16 7 7 6 16 16 7 13 7 4 5 6 4 5 3 4 3 3
27 25 23 22 20 17 17 17 16 15 12 13 11 10 9 8 8 7 7 6 5 3 2 3 2 2 8 10 6 5 2 3 5 3 8 1 5 4 6 5 5 6 3 2 3 4 3
29 27 23 23 20 17 17 15 14 14 11 10 9 7 7 6 8 7 7 6 4 3 3 2 3 2 5 3 4 4 3 4 3 3 6 8 6 4 4 5 4 3 2 2 5 3 4
29 27 24 23 20 17 16 13 12 11 9 8 6 6 6 7 11 11 11 5 1 1 3 6 3 3 5 5 2 4 4 5 4 8 4 4 6 4 2 2 5 2 3 3 2 2 7
31 29 25 24 20 17 15 13 11 9 8 8 6 6 8 11 12 10 7 3 3 2 4 10 5 6 12 10 2 4 2 4 4 2 2 6 4 2 7 5 7 6 6 2 3 8 10
32 31 27 25 21 18 15 14 11 9 9 8 7 7 10 12 10 8 7 7 4 10 1 4 5 5 5 6 2 2 3 2 3 2 4 6 2 4 7 7 8 4 2 2 5 6 5
34 31 28 26 21 19 16 14 12 10 11 9 8 10 10 10 7 4 5 5 7 2 4 4 1 3 1 3 3 2 2 3 4 6 5 6 6 5 6 5 3 3 2 3 4 6 4
36 32 30 26 22 20 17 14 12 11 12 11 9 10 12 10 3 4 2 7 4 3 3 3 2 2 3 4 1 4 5 4 4 4 6 2 2 6 6 1 2 3 1 2 2 4 4
37 33 31 27 23 21 18 14 12 13 13 12 11 10 12 9 4 2 7 5 2 6 2 1 2 2 3 2 1 2 6 7 4 6 7 3 1 3 1 1 1 1 4 6 4 3 3
38 35 31 27 23 21 18 14 13 14 15 14 12 12 11 6 1 4 5 4 5 4 1 4 3 3 2 2 5 4 4 6 4 5 3 5 4 5 3 2 3 5 5 2 3 3 4
38 36 31 27 24 22 17 14 13 15 16 15 12 14 8 5 2 3 3 5 1 4 4 2 4 3 4 3 4 4 3 3 5 4 3 4 3 4 5 2 2 3 4 4 5 3 3
39 36 32 27 24 21 17 14 14 16 18 17 14 10 3 3 1 1 5 3 5 6 5 6 4 4 2 3 5 5 3 1 2 3 4 4 1 3 1 2 3 1 4 3 6 3 3
41 36 31 27 24 20 17 14 15 19 21 19 12 7 3 6 3 5 4 5 4 4 2 4 5 4 5 4 4 4 2 3 2 4 2 5 4 1 4 3 4 5 4 3 4 3 2
41 35 31 27 23 20 16 14 16 22 24 21 7 4 3 6 4 5 3 6 4 3 2 3 5 4 5 6 4 2 1 3 3 4 5 3 3 4 2 3 1 4 2 6 5 3 4
40 35 30 26 23 19 15 14 19 24 25 19 6 3 1 6 4 1 3 4 4 2 6 4 4 2 5 4 4 2 4 1 5 1 2 1 5 3 1 5 3 1 3 4 4 3 1
39 33 29 26 22 17 14 15 21 27 29 11 4 2 3 1 4 2 4 4 0 1 3 2 2 2 2 5 6 2 3 0 3 3 3 1 2 3 6 6 5 1 3 5 5 3 4
37 33 29 25 20 16 13 15 24 30 29 12 4 2 4 3 1 7 3 3 1 3 3 3 3 5 5 5 6 4 2 1 1 3 2 4 3 5 6 4 3 3 3 3 4 3 3
36 31 27 22 19 15 13 16 25 31 27 8 2 5 5 4 2 4 5 2 3 2 1 3 3 3 4 4 3 3 2 2 3 2 3 4 3 2 3 4 2 0 4 6 6 5 5
35 30 25 21 18 14 13 16 24 31 22 3 4 4 3 2 7 6 4 6 6 2 4 1 6 2 2 6 6 8 6 2 3 4 3 4 1 1 1 5 6 3 5 6 5 4 7
33 28 24 20 17 13 12 15 25 32 21 4 3 2 5 2 4 6 5 6 8 6 6 2 9 5 5 2 4 5 3 5 5 5 3 3 4 3 3 4 4 6 8 8 5 4 6
31 26 22 20 17 13 11 15 25 32 27 5 4 4 4 2 4 6 6 4 6 5 7 1 5 6 3 6 4 6 11 11 10 8 3 5 4 2 2 3 2 6 3 5 5 3 3
29 25 22 19 15 12 10 14 23 32 25 6 6 4 3 2 2 3 7 6 7 6 5 3 4 0 9 5 5 5 5 6 5 6 6 3 5 3 4 3 5 4 5 6 7 7 6
28 25 21 19 14 12 11 13 19 26 23 12 7 6 4 6 3 5 5 4 5 4 4 3 5 9 6 3 4 4 4 4 2 1 5 5 6 4 3 4 6 6 3 5 4 5 9
27 24 21 18 13 12 12 13 15 21 22 14 6 5 4 4 1 3 4 6 6 5 4 3 4 2 3 3 3 3 3 3 4 6 4 2 3 5 2 4 8 7 4 3 5 7 7
25 23 20 16 14 11 12 12 14 17 18 11 7 4 3 3 2 1 1 5 4 3 5 5 4 3 3 4 3 4 3 5 2 4 6 7 6 4 3 1 8 7 3 8 6 1 9
25 22 19 16 14 11 12 12 12 14 14 12 6 10 12 5 3 4 9 8 2 7 6 1 5 4 5 4 1 3 2 2 2 3 2 3 7 5 10 6 4 6 5 5 6 6 7

GFSGBSN_925_spd_018.txt.gz
Wind_Speed
25 24 22 22 23 23 21 22 21 20 19 21 21 20 18 15 15 14 14 13 12 10 10 9 9 7 3 2 8 3 15 4 18 20 15 6 5 5 5 5 5 4 5 2 2 8 4
27 26 24 24 24 23 23 22 21 21 20 21 20 18 17 14 13 14 12 12 12 10 9 8 7 4 2 4 3 2 14 7 13 23 13 11 8 8 3 4 4 4 2 2 4 8 4
29 27 25 25 24 24 23 21 21 22 20 20 18 16 14 12 11 12 12 12 11 9 7 7 4 2 2 11 3 14 15 8 14 21 6 21 15 5 3 2 2 4 5 5 5 2 4
30 30 27 26 26 24 23 21 20 22 20 18 16 14 12 10 10 11 11 10 8 7 6 4 3 3 7 6 12 14 6 4 12 16 23 9 19 3 1 2 6 5 5 3 4 3 3
33 31 29 27 27 25 23 21 19 22 19 16 14 11 10 8 8 9 10 7 6 5 2 1 2 3 8 8 7 3 4 1 4 6 11 6 11 5 4 5 5 7 3 1 2 3 3
36 34 31 28 28 26 23 21 19 21 17 14 12 9 9 6 8 9 8 5 3 2 1 2 3 2 6 3 5 3 4 4 1 1 2 5 4 4 4 5 4 5 3 1 3 2 12
40 35 33 29 28 27 24 21 18 18 14 12 11 8 6 7 9 11 14 6 2 1 4 7 3 3 3 9 4 3 3 2 3 8 2 5 7 2 2 2 3 4 4 3 1 4 8
42 37 35 30 29 28 24 21 18 17 13 12 10 8 6 9 11 13 6 3 4 2 4 10 5 6 9 3 2 3 1 3 4 3 1 7 3 2 3 4 6 5 8 4 3 6 8
45 40 36 32 30 29 25 21 17 17 14 12 9 8 8 11 12 11 9 8 5 8 1 3 5 5 3 7 3 2 2 2 2 3 3 7 1 0 2 5 8 5 6 1 4 5 5
49 42 37 34 31 30 25 21 18 16 15 12 10 9 11 14 9 6 6 2 5 5 4 5 2 4 2 4 3 2 2 4 5 6 3 6 3 3 6 6 4 3 3 5 5 4 3
51 44 39 36 32 30 26 21 19 16 16 14 13 12 15 19 3 5 1 5 2 2 3 3 3 1 2 5 2 1 5 4 5 4 4 1 2 6 7 2 3 2 5 5 3 4 4
51 46 41 38 33 31 27 22 20 17 16 15 15 14 17 17 7 4 5 1 2 6 3 2 2 2 3 3 2 2 5 7 4 6 7 3 2 4 1 3 3 3 5 8 5 3 2
50 49 43 39 35 31 27 23 20 18 17 17 16 16 23 8 3 3 2 3 5 4 1 2 3 3 3 5 6 5 5 6 3 5 4 6 4 5 3 3 3 6 6 3 3 3 4
52 49 44 39 35 32 28 23 20 18 18 19 17 17 19 11 4 1 3 5 2 3 5 1 3 4 4 2 3 5 3 3 5 5 3 4 4 4 5 2 4 3 5 5 5 3 3
49 49 44 39 36 31 28 23 20 19 19 20 17 16 6 6 7 3 6 4 6 6 3 5 4 4 2 2 4 5 3 2 2 2 5 4 1 3 2 2 3 2 3 3 6 2 3
50 49 44 39 35 31 27 23 20 20 21 22 14 9 5 8 6 4 5 5 3 4 1 4 4 2 4 3 3 3 1 2 1 3 2 5 4 3 2 2 6 2 5 3 3 3 3
53 49 44 39 34 31 27 23 21 21 24 24 6 3 3 7 5 5 4 5 4 6 3 4 4 3 3 4 3 2 1 1 1 3 3 3 4 4 1 4 2 3 2 6 5 3 4
50 48 44 40 34 31 27 23 22 23 27 24 6 3 1 7 4 1 4 5 3 3 1 3 4 3 5 3 3 2 4 1 3 1 3 1 5 2 2 2 2 2 3 4 4 3 1
49 48 44 38 34 30 26 24 22 26 33 13 4 2 3 2 4 2 2 2 3 2 2 2 3 2 3 4 5 2 3 1 3 1 5 4 2 3 6 5 4 2 3 4 5 3 4
46 45 42 37 33 29 26 23 24 31 34 9 4 3 4 4 1 8 4 2 2 1 2 4 4 4 4 3 5 5 3 1 2 2 5 6 3 5 6 4 2 3 4 4 5 3 3
46 43 39 35 32 28 25 23 27 35 35 8 2 4 4 4 1 4 5 3 3 2 2 4 4 2 5 4 3 3 2 2 4 2 3 3 4 2 1 3 2 2 4 6 7 5 6
42 40 37 33 29 25 23 23 30 37 31 3 4 4 3 1 7 7 5 6 7 2 2 1 5 2 2 5 6 8 6 4 4 3 3 3 2 2 1 3 5 4 6 6 5 4 7
40 37 34 30 27 23 22 23 32 38 24 4 3 4 5 3 4 6 6 6 8 5 3 2 6 5 3 1 3 4 5 6 5 5 3 3 5 3 4 3 5 6 9 11 6 5 7
37 34 30 27 24 21 20 23 32 39 30 5 4 5 4 2 3 6 7 4 5 4 7 2 4 5 1 6 6 6 9 11 10 8 3 5 4 3 2 3 2 6 2 3 8 4 8
34 30 27 25 21 18 19 24 33 40 31 4 7 4 4 2 2 3 6 6 6 5 4 4 4 2 8 4 5 5 5 6 5 6 7 4 4 3 4 3 6 5 5 7 8 8 9
31 29 25 22 18 16 17 24 32 39 34 7 8 7 4 6 5 5 5 4 5 4 3 3 4 6 6 3 4 4 4 4 2 2 4 5 6 4 2 3 6 6 3 3 3 5 7
30 27 23 20 17 15 14 19 28 37 35 11 5 4 5 4 2 4 4 6 6 5 4 4 5 1 3 3 3 3 3 2 3 5 3 3 3 5 3 3 8 8 4 1 5 7 5
28 25 23 19 16 15 14 16 25 34 26 17 2 4 3 3 1 2 2 5 4 3 5 5 4 3 3 3 3 3 3 5 2 4 6 7 6 4 3 2 8 6 4 7 6 2 5
26 23 21 18 16 16 14 16 20 28 24 24 2 8 10 5 3 5 9 6 1 6 6 0 4 5 5 4 1 3 2 1 2 3 2 2 6 4 9 6 4 6 5 4 2 3 6

GFSGBSN_925_spd_021.txt.gz
Wind_Speed
27 26 24 23 22 21 21 18 21 20 18 20 19 22 18 18 17 14 13 12 9 9 8 8 7 6 3 2 8 3 11 12 22 19 16 7 6 5 4 5 5 5 2 6 2 7 6
29 28 26 24 23 23 22 20 20 20 19 20 19 22 17 17 16 13 12 10 8 8 6 7 5 3 0 3 3 4 7 8 19 21 11 8 6 6 3 2 6 3 4 3 3 5 6
31 31 29 26 25 22 22 21 20 18 20 21 19 21 15 16 14 12 10 9 7 6 5 5 2 0 1 11 3 6 13 6 16 24 7 14 8 2 3 3 2 4 5 4 4 1 5
33 32 31 29 26 23 23 22 20 19 19 21 19 18 15 15 12 10 8 7 5 5 3 2 2 1 6 6 8 15 11 6 10 20 11 5 17 3 2 0 4 3 3 4 2 2 4
36 34 33 30 28 25 23 22 20 19 19 18 18 16 14 13 9 9 6 5 3 3 1 2 2 1 8 9 6 2 5 1 9 11 13 9 12 3 2 4 2 6 3 3 4 7 4
37 36 35 32 29 27 24 23 22 19 19 17 16 14 13 11 7 7 6 5 2 3 3 2 1 2 7 3 4 5 1 0 3 8 5 4 2 2 2 2 6 4 4 1 4 4 12
25 38 37 35 31 28 25 24 22 19 19 15 14 11 12 9 7 10 12 7 3 0 4 7 3 3 4 9 4 2 2 1 3 6 2 2 3 4 3 2 3 5 4 5 3 1 7
33 31 38 37 33 30 27 25 22 20 17 14 13 10 10 8 10 12 9 2 5 3 3 11 5 6 10 4 2 3 1 2 2 2 1 4 3 2 5 6 6 4 7 4 5 3 5
35 34 41 39 36 32 29 26 24 20 17 14 13 9 9 10 13 12 9 12 2 5 1 3 5 4 4 7 4 2 2 3 5 3 4 4 1 2 5 4 10 3 5 4 4 6 6
34 34 34 41 38 34 31 27 24 21 18 15 12 11 12 15 9 7 7 3 7 6 4 3 3 3 3 3 2 1 2 3 4 5 4 4 2 4 3 4 2 4 1 7 11 3 3
35 36 37 43 40 36 33 29 25 22 19 16 14 14 16 18 6 5 2 4 5 2 3 3 3 2 2 4 3 2 5 5 5 4 3 1 2 3 5 1 1 3 3 5 3 4 3
35 37 38 42 42 39 35 30 27 23 20 16 16 17 17 22 10 9 3 2 3 5 3 2 1 3 4 5 3 4 4 6 4 5 5 3 1 3 2 2 4 9 5 6 3 2 1
35 35 34 41 43 41 36 31 28 23 21 17 18 20 24 14 3 3 3 3 4 4 2 2 3 3 3 2 4 3 3 4 3 4 3 4 3 2 1 3 2 3 4 1 0 0 4
34 34 34 38 44 42 37 32 29 24 20 18 18 20 23 25 10 1 3 4 3 3 5 1 3 3 4 3 2 3 3 3 5 4 3 3 0 3 5 2 3 3 2 4 4 3 1
33 36 35 38 46 43 38 34 29 25 19 16 18 16 9 25 20 14 4 3 6 6 3 6 3 4 2 2 4 3 3 2 1 2 4 3 1 2 3 1 0 3 2 2 6 1 1
34 34 34 40 48 44 38 34 29 25 21 20 16 11 7 11 11 7 4 5 4 4 2 3 4 2 3 2 3 3 1 1 2 2 1 5 3 1 1 1 6 1 7 2 2 3 3
35 35 33 43 49 44 39 34 29 26 22 24 9 3 7 11 11 4 4 5 5 6 4 4 4 3 3 4 3 2 3 1 1 1 2 3 3 2 1 1 4 3 2 5 4 1 3
33 36 32 43 49 43 39 35 30 25 22 29 6 3 6 12 3 1 4 5 3 3 3 2 4 3 5 3 3 3 6 1 1 1 4 1 4 3 1 1 1 1 3 4 3 4 1
35 26 32 41 45 43 40 35 31 27 31 19 4 2 2 4 4 1 2 3 3 0 1 3 3 3 2 4 4 2 3 1 1 3 5 5 1 3 2 2 1 2 3 4 5 2 5
32 25 35 39 45 43 41 37 32 30 35 17 4 3 2 3 1 7 5 4 3 2 1 4 5 4 4 3 4 4 3 1 1 2 5 4 3 4 6 3 1 4 4 5 3 3 4
29 29 33 48 47 43 40 36 33 32 38 9 2 3 3 4 1 5 4 6 5 3 1 2 4 2 5 4 2 3 2 2 3 3 3 2 4 2 1 1 2 2 4 9 8 4 6
24 40 40 46 43 41 38 35 31 33 40 4 4 4 3 2 6 6 3 6 7 3 1 1 6 3 2 5 6 8 6 4 4 2 2 2 4 2 4 0 2 3 6 8 8 4 11
39 36 39 40 38 38 35 32 31 36 41 5 3 3 5 4 4 5 6 6 7 7 2 3 7 5 4 1 2 3 6 7 5 5 3 2 5 3 3 3 2 5 10 12 6 6 9
31 38 38 36 36 35 32 30 31 39 37 6 6 5 4 2 3 6 8 4 7 6 7 3 4 5 1 9 8 7 11 12 12 9 3 4 4 2 1 2 2 4 2 3 12 8 14
38 36 35 34 33 30 29 28 31 42 39 4 8 5 4 3 3 3 6 5 7 5 4 3 3 1 8 3 4 4 4 5 5 7 6 3 4 3 3 3 6 5 4 6 7 6 11
36 33 31 28 28 27 26 28 33 44 42 5 9 9 5 7 5 6 5 5 5 4 3 3 4 5 5 3 3 4 3 3 1 1 3 5 5 3 3 3 5 5 1 3 3 4 2
31 28 25 25 24 24 25 29 36 44 43 7 7 7 6 4 0 5 4 6 5 4 4 4 5 2 2 2 3 3 3 1 3 5 3 2 2 3 2 3 7 6 1 1 2 5 1
27 23 22 21 19 19 23 29 37 43 43 8 8 7 2 3 1 0 4 5 3 2 5 5 4 2 2 3 3 3 3 4 2 3 5 5 6 3 3 1 6 5 3 4 4 2 3
25 23 22 19 17 17 21 28 36 42 42 16 7 8 9 5 3 5 10 6 1 5 6 1 3 4 4 4 1 3 2 1 2 3 1 3 4 3 8 5 3 6 5 2 2 3 2

GFSGBSN_925_spd_024.txt.gz
Wind_Speed
29 27 26 24 23 21 19 18 19 19 16 18 15 17 17 17 16 14 12 13 10 10 12 9 7 8 3 6 7 4 8 20 21 16 15 13 12 8 11 11 10 11 4 3 5 9 11
32 29 28 26 24 22 21 18 20 20 18 17 16 18 17 16 15 13 10 11 8 10 10 8 7 4 3 6 1 3 6 19 16 18 14 12 6 8 5 6 11 2 8 3 6 10 12
24 34 30 29 25 23 22 20 19 21 18 18 16 19 17 15 14 11 9 8 7 10 8 7 3 2 5 10 2 7 4 6 14 17 12 14 8 6 2 4 3 4 7 8 8 10 7
28 23 34 30 27 25 23 21 20 21 19 18 16 18 15 13 13 8 7 6 7 8 8 5 1 1 7 4 3 10 9 6 9 14 10 4 10 9 5 1 3 7 6 6 6 7 4
29 29 32 32 30 27 25 23 20 21 20 18 16 17 15 12 10 5 6 5 5 6 3 1 1 3 6 5 5 1 8 4 8 10 6 3 8 4 3 6 5 6 8 7 8 5 7
30 31 27 34 33 29 26 25 22 21 20 18 16 16 13 9 6 3 6 3 3 1 1 3 5 5 8 1 2 0 6 12 4 11 7 5 4 6 6 7 9 8 6 10 10 4 6
31 30 29 30 36 31 29 26 24 20 20 18 16 14 11 8 5 7 8 5 4 5 8 6 1 5 4 10 3 4 4 9 6 5 5 5 5 8 6 8 3 3 6 11 8 5 4
34 34 32 27 37 34 31 28 25 21 20 17 15 12 10 6 6 11 7 5 6 3 5 15 11 10 11 4 3 5 3 4 4 1 2 6 0 4 3 4 5 6 9 8 5 4 4
35 34 35 32 32 36 32 30 26 23 20 17 14 12 8 7 11 10 10 15 2 7 4 4 7 5 3 7 4 3 3 4 13 10 4 3 7 2 5 8 9 5 5 10 7 7 2
36 36 36 34 32 38 33 31 28 24 21 18 14 11 10 14 7 7 8 12 15 8 4 6 5 4 5 3 4 2 2 1 5 9 2 3 2 8 8 6 3 6 1 9 13 12 7
37 38 35 35 32 35 35 32 30 25 22 19 15 12 18 16 2 7 1 5 5 4 6 7 5 4 4 5 2 3 3 2 5 5 3 3 3 6 5 2 2 4 6 8 5 4 5
40 39 38 34 34 32 38 34 31 26 23 20 16 14 18 18 8 9 4 3 5 5 4 6 6 8 7 2 2 1 2 5 3 3 3 4 2 2 4 5 1 11 8 5 2 2 6
39 37 38 36 34 32 36 36 32 27 24 20 17 16 26 12 4 3 5 5 5 7 2 7 8 9 9 5 5 3 6 8 7 9 8 6 4 4 3 9 5 5 9 3 4 5 7
37 37 36 37 35 32 35 39 34 29 25 20 17 16 23 18 8 3 5 6 7 4 8 3 6 10 11 6 3 3 8 8 2 5 8 9 6 4 1 3 3 7 6 4 5 4 3
36 35 34 36 36 32 34 40 35 31 26 20 15 14 10 17 22 3 4 9 7 5 6 9 10 13 7 6 3 6 5 6 2 2 4 5 4 4 2 2 2 6 6 2 2 1 3
36 35 33 34 37 34 34 43 36 32 27 25 14 10 14 13 14 12 5 9 7 3 4 11 10 10 11 11 9 7 8 3 3 1 3 4 4 3 5 2 7 3 8 3 3 3 4
35 34 33 36 36 35 35 44 38 34 30 25 13 6 9 16 17 7 9 10 4 6 6 10 8 7 9 9 8 9 8 4 3 4 1 5 3 5 3 6 5 4 4 1 0 2 2
32 34 35 38 36 34 37 45 39 36 32 30 12 9 12 22 9 6 12 7 4 6 5 6 4 5 11 10 7 8 9 1 4 3 5 2 1 4 6 3 2 2 5 7 4 4 1
26 32 33 33 36 35 39 44 41 40 40 20 9 5 5 7 10 8 6 7 4 6 8 8 7 3 3 7 4 5 5 3 2 5 6 6 4 4 5 4 5 7 8 5 4 1 6
26 31 31 32 40 33 42 45 45 43 42 24 9 8 5 6 4 15 13 14 9 3 4 3 4 3 6 4 1 6 7 3 2 2 2 3 3 6 7 1 1 6 11 11 10 4 4
28 30 29 30 34 44 44 48 48 44 44 14 6 7 11 12 10 13 16 14 15 6 3 6 4 6 7 5 5 5 5 5 3 5 3 3 5 4 2 1 3 4 7 13 16 13 7
29 30 31 33 29 39 46 48 48 45 44 12 8 5 4 14 13 14 13 12 18 7 7 7 7 9 7 4 7 9 9 7 4 6 5 2 3 2 3 2 3 7 10 12 15 16 14
30 30 36 30 32 35 44 46 46 46 43 9 4 2 10 5 12 13 11 13 14 11 1 2 9 8 5 4 5 7 7 7 5 6 6 3 5 3 2 2 3 6 15 17 12 12 14
29 28 29 29 32 37 38 44 43 43 41 17 6 4 5 7 11 14 13 11 13 11 8 4 4 4 5 16 16 14 14 12 10 8 2 5 5 1 0 1 3 1 1 3 12 16 15
29 35 39 29 39 39 41 41 41 39 42 6 7 4 4 4 10 10 13 12 9 6 5 6 4 3 16 4 3 4 2 2 4 7 5 1 4 3 2 4 7 12 3 3 5 6 5
29 34 29 36 36 39 39 38 39 40 47 6 7 7 4 7 7 8 15 11 7 6 5 4 6 12 2 2 2 4 4 3 4 4 3 4 3 2 3 3 4 3 4 1 3 5 5
36 34 31 32 36 36 35 36 37 43 48 7 6 9 4 3 3 9 13 12 5 4 5 6 8 3 1 2 2 2 3 1 5 5 4 2 0 4 4 4 6 1 2 3 3 3 5
26 25 29 32 31 32 33 34 36 47 49 5 7 7 2 3 5 1 4 6 5 7 6 8 6 2 2 2 2 3 2 4 3 2 4 5 6 3 3 3 5 5 6 3 4 4 6
29 30 27 26 28 29 30 33 37 48 50 8 6 12 14 5 4 5 6 3 2 3 6 11 1 6 6 3 1 3 3 1 1 2 3 3 4 1 6 2 3 7 6 3 4 8 10

GFSGBSN_925_spd_027.txt.gz
Wind_Speed
21 18 28 26 24 22 20 18 17 17 17 17 16 17 17 16 16 17 14 13 13 13 10 13 9 11 8 7 12 3 6 14 19 16 13 11 12 13 12 12 14 12 4 4 2 9 7
26 23 22 31 26 25 22 20 18 17 18 17 17 16 19 16 16 15 13 11 11 11 10 11 8 6 7 10 2 1 6 17 14 17 12 13 8 8 8 8 13 10 12 3 7 9 2
25 27 25 24 29 26 24 22 20 18 17 17 17 16 17 15 14 13 11 8 9 11 9 8 7 4 9 15 3 3 5 9 12 15 11 12 10 7 3 6 9 4 6 5 8 10 6
26 26 29 26 29 29 26 24 21 20 18 17 17 15 18 16 14 12 8 6 8 7 7 6 1 4 8 4 8 9 8 6 11 14 13 5 8 11 9 5 7 10 11 9 9 16 14
28 25 28 27 25 29 28 25 23 21 20 17 17 16 17 15 13 9 6 7 8 7 4 1 1 6 7 4 9 5 8 4 8 8 6 5 5 8 10 12 8 11 12 8 6 10 10
29 30 26 29 27 27 31 27 25 22 20 18 17 16 16 13 9 6 5 5 7 2 1 4 9 6 10 9 4 3 7 9 4 9 9 5 8 7 10 8 8 8 15 15 14 10 13
31 31 29 28 26 28 31 29 26 23 21 18 17 16 15 11 8 7 4 2 5 6 8 12 2 9 2 3 5 9 8 10 7 8 7 7 8 11 11 9 5 10 3 7 13 4 9
31 32 31 30 28 26 30 30 27 25 21 18 17 15 14 10 7 7 7 8 9 6 8 22 16 11 14 4 6 8 8 10 9 8 14 7 11 9 5 5 12 8 5 11 8 9 6
34 34 33 32 32 31 26 31 28 26 22 19 17 15 11 8 6 8 14 15 3 12 6 11 13 10 8 9 10 13 10 7 15 11 6 7 6 5 8 7 12 7 9 7 10 11 13
36 35 35 34 33 31 30 29 29 27 23 19 18 15 10 9 6 8 10 12 14 7 5 12 9 8 8 7 6 1 7 5 6 10 11 10 12 12 10 7 5 6 0 7 5 12 14
37 36 36 36 34 34 30 28 32 27 24 20 19 16 15 14 4 8 4 1 2 4 6 16 13 7 7 11 4 9 5 7 8 7 10 9 7 11 11 3 5 10 4 7 8 14 8
38 38 37 36 36 35 31 28 31 29 26 22 20 17 14 14 10 10 2 2 4 6 7 8 9 11 12 11 6 7 9 7 3 8 10 13 1 5 7 2 2 5 5 5 8 10 8
36 38 38 36 36 36 32 30 31 32 27 23 21 19 22 13 4 5 7 5 6 11 6 11 13 15 15 9 9 9 15 14 12 10 10 8 6 3 4 7 4 8 8 7 6 5 9
34 36 39 39 38 37 34 30 31 33 27 24 21 19 18 20 13 6 8 7 11 15 11 4 11 14 13 10 9 10 12 16 17 15 4 12 9 11 6 6 4 8 10 6 6 7 9
39 39 39 41 40 36 37 31 30 32 28 24 19 14 12 19 19 8 8 12 15 7 11 9 11 12 14 11 5 12 15 15 16 15 12 11 6 7 0 2 5 5 8 6 5 1 6
37 37 37 41 40 37 36 34 31 33 31 29 19 11 21 17 20 12 9 17 20 3 5 11 14 14 14 14 11 12 12 6 6 5 5 1 2 3 4 3 5 8 3 4 6 4 8
39 38 41 42 40 37 35 35 32 35 35 31 23 6 16 23 23 8 12 19 17 8 8 12 16 11 12 12 14 16 13 8 6 8 6 3 7 7 5 10 10 7 9 7 5 3 4
34 39 43 42 39 37 34 34 32 38 37 34 20 11 23 33 11 10 16 22 12 12 9 9 6 9 12 11 12 12 13 8 9 7 9 4 4 6 12 5 5 9 8 10 6 6 3
35 37 41 43 40 37 33 34 32 43 46 31 12 9 18 28 14 14 19 22 14 13 12 12 11 8 9 10 10 11 10 6 3 7 4 6 7 8 6 7 8 8 10 8 5 2 9
35 35 38 37 38 38 38 34 33 45 48 33 11 11 6 10 17 21 24 22 18 12 10 14 11 9 10 8 6 9 8 4 4 3 3 1 12 10 9 5 2 7 12 11 11 7 9
23 34 35 35 36 35 36 34 29 49 50 33 11 13 14 17 20 21 23 18 22 14 10 13 11 15 13 9 9 7 10 6 5 5 5 4 9 13 14 5 6 8 8 12 17 16 12
25 27 27 33 35 33 34 36 31 54 52 21 9 13 14 17 24 20 21 23 24 19 15 16 13 16 13 9 10 9 12 9 7 9 7 5 6 3 6 7 7 10 12 14 14 16 17
28 27 27 30 32 36 37 34 26 52 51 13 14 6 13 18 24 18 18 23 23 16 3 8 16 11 11 4 6 8 8 4 4 7 10 5 4 3 4 3 5 6 17 18 17 16 12
27 27 27 30 34 33 40 35 33 56 58 28 18 5 8 16 18 20 22 22 21 17 11 5 8 10 6 13 13 12 11 8 6 4 3 5 7 1 0 1 1 2 2 4 6 12 14
27 27 28 30 38 37 33 37 36 57 62 30 15 5 4 4 17 24 22 21 16 9 11 13 5 4 16 9 4 4 2 2 2 2 3 4 4 2 2 6 9 12 5 1 2 5 8
29 27 28 32 35 33 35 43 50 54 60 26 15 9 8 8 13 22 19 19 13 11 7 4 7 9 4 3 2 5 5 6 5 6 2 3 1 4 3 3 4 4 4 1 1 5 7
28 28 32 32 33 39 37 44 47 50 52 40 7 11 8 7 14 14 15 14 13 12 7 7 8 5 3 3 2 3 4 2 5 5 4 2 1 6 5 3 6 3 3 2 5 3 8
29 28 33 35 35 37 41 40 45 48 47 42 9 6 6 4 7 2 9 13 12 12 8 11 7 2 3 3 3 3 1 4 2 2 6 6 7 3 3 3 5 6 6 2 5 6 9
30 28 38 37 43 38 41 44 44 46 43 43 7 3 10 4 6 6 7 7 0 7 8 12 4 11 7 5 1 2 2 1 1 3 3 4 5 2 6 2 4 5 5 5 4 7 8